Regional Weather Roundup
Issued by NWS

Home | Current Version | Previous Version | Text Only | Print | Product List | Glossary On
Versions: 1 2 3 4 5 6 7 8 9 10 11 12 13 14 15 16 17 18 19 20 21 22 23 24 25 26 27
000
ASUS45 KBOU 010307
RWRCO

WEATHER ROUNDUP FOR COLORADO
NATIONAL WEATHER SERVICE DENVER/BOULDER CO
900 PM MDT FRI OCT 31 2014

NOTE: "FAIR" INDICATES FEW OR NO CLOUDS BELOW 12000 FEET WITH NO
SIGNIFICANT WEATHER AND/OR OBSTRUCTIONS TO VISIBILITY.

COZ001>005-013-030-031-010400-
...NORTHWEST COLORADO...

CITY           SKY/WX    TMP DP  RH WIND       PRES   REMARKS
CRAIG          MOCLDY    43  27  53 VRB3      30.07F
HAYDEN         MOCLDY    50  21  32 SE6       30.09F
MEEKER         PTCLDY    44  30  57 NE5       30.09F
MOUNT WERNER   NOT AVBL
STEAMBOAT SPGS MOCLDY    48  25  39 E9        30.11F
WALDEN         CLEAR     37  21  52 SE8       30.17F
$$

COZ006>008-011-010400-
...WEST CENTRAL VALLEYS...

CITY           SKY/WX    TMP DP  RH WIND       PRES   REMARKS
GRAND JUNCTION PTCLDY    53  28  38 E10       30.00F
MONTROSE       PTCLDY    49  29  46 SE8       30.09F
EAGLE          MOCLDY    46  27  46 E9        30.14F
RIFLE          PTCLDY    52  28  39 NE5       30.06S
DELTA          PTCLDY    54  29  37 CALM      30.06S
NUCLA          PTCLDY    52  27  37 E10       30.11F
$$

COZ017>023-064>068-010400-
...SOUTHWEST COLORADO...

CITY           SKY/WX    TMP DP  RH WIND       PRES   REMARKS
DURANGO        CLOUDY    55  32  41 NE6       30.24R
CORTEZ         CLEAR     60  31  33 SE25G37   30.12R
PAGOSA SPRINGS CLOUDY    54  28  37 S5        30.31R
TELLURIDE      CLOUDY    50  26  39 S6        30.29S
WOLF CREEK PAS LGT SNOW  32  27  80 SW31G40   30.43F WCI  17
$$

COZ009-010-012-014-032>034-037-058>063-010400-
...CENTRAL COLORADO...

CITY           SKY/WX    TMP DP  RH WIND       PRES   REMARKS
ASPEN          PTCLDY    44  22  41 SW8       30.18S
BUENA VISTA    CLEAR     38  20  49 W5        30.22F
COPPER MTN     PTCLDY    41  12  30 S7        30.39F
BERTHOUD PASS  FAIR      34  30  86 MISG      30.41F
COTTONWOOD PAS CLEAR     48  14  25 SW12      30.30F
GUNNISON       PTCLDY    43  19  39 N8        30.23S
KREMMLING      PTCLDY    37  23  56 E3        30.17R
LEADVILLE      PTCLDY    34  14  43 E6        30.29R WCI  29
MONARCH PASS   CLEAR     34  19  55 SW24      30.50S WCI  21
SALIDA         CLEAR     54  26  34 S8        30.29S
SUNLIGHT       PTCLDY    41  23  48 CALM      30.33F
WILKERSON PASS NOT AVBL
$$

COZ069>075-010400-
...SAN LUIS VALLEY/SANGRE DE CRISTO MOUNTAINS...

CITY           SKY/WX    TMP DP  RH WIND       PRES   REMARKS
ALAMOSA        MOCLDY    49  27  42 S16       30.25R
LA VETA PASS   PTCLDY    37  27  65 SW9G21    30.33F
SAGUACHE       PTCLDY    41  21  45 CALM      30.27R
$$

COZ035-036-038>040-010400-
...NORTHERN COLORADO FRONT RANGE...

CITY           SKY/WX    TMP DP  RH WIND       PRES   REMARKS
DENVER INTL AP MOCLDY    44  28  53 S9        30.09F
DMNS CITY PARK   N/A     42  31  63 NW1       30.10F
AURORA         PTCLDY    45  28  52 S12       30.10F
FRONT RANGE AP MOCLDY    45  30  57 S13       30.10F
ERIE MUNI ARPT CLEAR     37  31  78 SW3       30.10F
BOULDER MUN AP CLEAR     43  32  65 CALM      30.10F
CENTENNIAL     PTCLDY    43  28  55 SW5       30.11F
BROOMFIELD     MOCLDY    45  30  57 NW6       30.11F
FORT COLLINS   PTCLDY    43  28  56 N6        30.11S
LONGMONT       PTCLDY    40  32  70 W3        30.12F
$$

COZ041-046-047-076>085-087-088-010400-
...PIKES PEAK/PALMER DIVIDE AND SOUTHERN FOOTHILLS...

CITY           SKY/WX    TMP DP  RH WIND       PRES   REMARKS
COLO. SPRINGS  PTCLDY    35  26  69 N8        30.17F WCI  29
A. F. ACADEMY  PTCLDY    32  24  74 N8        30.17F WCI  24
ELLICOTT       PTCLDY    39  28  64 E12       30.15F
FALCON         PTCLDY    39  27  61 CALM      30.19F
FORT CARSON    PTCLDY    39  27  63 NW7       30.14F
LIMON          CLEAR     37  26  64 SE16      30.16F
MONUMENT HILL  CLEAR     36  28  75 S10       30.15S
TRINIDAD       MOCLDY    56  28  34 CALM      30.15S
$$

COZ042>045-048>051-090-091-010400-
...NORTHEAST COLORADO...

CITY           SKY/WX    TMP DP  RH WIND       PRES   REMARKS
GREELEY ARPT   MOCLDY    39  25  56 CALM      30.10F
AKRON          CLEAR     37  27  67 SE18      30.14F
BURLINGTON     CLEAR     37  21  52 SE21      30.20F
WRAY           CLEAR     38  22  52 SE9       30.21F
STERLING       CLEAR     43  32  65 S8        30.15S
HOLYOKE        CLEAR     37  23  56 SE12      30.20F
FORT MORGAN    CLEAR     40  26  58 SE9       30.13F
$$

COZ086-089-092>099-010400-
...SOUTHEAST COLORADO...

CITY           SKY/WX    TMP DP  RH WIND       PRES   REMARKS
PUEBLO         PTCLDY    45  26  47 W7        30.12F
LA JUNTA       CLEAR     54  29  38 SE12      30.13S
LAMAR          CLEAR     46  27  47 SE17G25   30.18F
SPRINGFIELD      N/A     41  28  60 SE15      30.24F
$$



USA.gov is the U.S. government's official web portal to all federal, state and local government web resources and services.